Time,TemperatureF,DewpointF,PressureIn,WindDirection,WindDirectionDegrees,WindSpeedMPH,WindSpeedGustMPH,Humidity,HourlyPrecipIn,Conditions,Clouds,dailyrainin,SoftwareType,DateUTC
2013-11-07 00:01:00,44.1,20.7,24.56,North,360,5.0,5.0,39,0.00,,---,0.00,VWS V14.01,2013-11-07 06:01:00,
2013-11-07 00:06:00,44.3,20.3,24.56,North,360,5.0,6.0,38,0.00,,---,0.00,VWS V14.01,2013-11-07 06:06:00,
2013-11-07 00:11:00,44.4,20.4,24.56,North,358,6.0,6.0,38,0.00,,---,0.00,VWS V14.01,2013-11-07 06:11:00,
2013-11-07 00:16:00,44.5,20.5,24.56,North,358,4.0,5.0,38,0.00,,---,0.00,VWS V14.01,2013-11-07 06:16:00,
2013-11-07 00:21:00,44.6,20.6,24.56,North,358,5.0,5.0,38,0.00,,---,0.00,VWS V14.01,2013-11-07 06:21:00,
2013-11-07 00:26:00,44.7,20.7,24.56,North,351,4.0,6.0,38,0.00,,---,0.00,VWS V14.01,2013-11-07 06:26:00,
2013-11-07 00:31:00,44.7,20.7,24.56,NNW,347,3.0,5.0,38,0.00,,---,0.00,VWS V14.01,2013-11-07 06:31:00,
2013-11-07 00:36:00,44.8,20.1,24.56,NNW,347,2.0,4.0,37,0.00,,---,0.00,VWS V14.01,2013-11-07 06:36:00,
2013-11-07 00:41:00,44.8,20.1,24.56,NNW,347,3.0,4.0,37,0.00,,---,0.00,VWS V14.01,2013-11-07 06:41:00,
2013-11-07 00:46:00,44.9,19.6,24.56,NNW,343,4.0,5.0,36,0.00,,---,0.00,VWS V14.01,2013-11-07 06:46:00,
2013-11-07 00:51:00,45.1,20.4,24.56,NNW,341,3.0,5.0,37,0.00,,---,0.00,VWS V14.01,2013-11-07 06:51:00,
2013-11-07 00:56:00,45.4,20.0,24.57,NNW,341,3.0,4.0,36,0.00,,---,0.00,VWS V14.01,2013-11-07 06:56:00,
2013-11-07 01:01:00,45.6,20.2,24.57,NNW,344,4.0,4.0,36,0.00,,---,0.00,VWS V14.01,2013-11-07 07:01:00,
2013-11-07 01:06:00,45.8,20.4,24.57,NNW,347,3.0,3.0,36,0.00,,---,0.00,VWS V14.01,2013-11-07 07:06:00,
2013-11-07 01:11:00,45.8,19.7,24.57,North,351,3.0,4.0,35,0.00,,---,0.00,VWS V14.01,2013-11-07 07:11:00,
2013-11-07 01:16:00,45.8,19.7,24.57,North,359,4.0,4.0,35,0.00,,---,0.00,VWS V14.01,2013-11-07 07:16:00,
2013-11-07 01:21:00,45.5,19.5,24.57,North,360,4.0,4.0,35,0.00,,---,0.00,VWS V14.01,2013-11-07 07:21:00,
2013-11-07 01:26:00,45.2,19.2,24.57,North,360,4.0,5.0,35,0.00,,---,0.00,VWS V14.01,2013-11-07 07:26:00,
2013-11-07 01:31:00,45.2,18.5,24.57,North,360,5.0,5.0,34,0.00,,---,0.00,VWS V14.01,2013-11-07 07:31:00,
2013-11-07 01:36:00,45.1,17.7,24.57,North,8,3.0,5.0,33,0.00,,---,0.00,VWS V14.01,2013-11-07 07:36:00,
2013-11-07 01:41:00,45.3,19.3,24.57,NNE,13,3.0,5.0,35,0.00,,---,0.00,VWS V14.01,2013-11-07 07:41:00,
2013-11-07 01:46:00,45.2,20.5,24.57,NNE,22,4.0,4.0,37,0.00,,---,0.00,VWS V14.01,2013-11-07 07:46:00,
2013-11-07 01:51:00,44.9,21.5,24.57,NNE,26,4.0,5.0,39,0.00,,---,0.00,VWS V14.01,2013-11-07 07:51:00,
2013-11-07 01:56:00,44.7,21.3,24.57,NNE,29,3.0,4.0,39,0.00,,---,0.00,VWS V14.01,2013-11-07 07:56:00,
2013-11-07 02:01:00,44.5,21.7,24.57,NE,39,4.0,5.0,40,0.00,,---,0.00,VWS V14.01,2013-11-07 08:01:00,
2013-11-07 02:06:00,44.4,21.6,24.57,NE,39,3.0,4.0,40,0.00,,---,0.00,VWS V14.01,2013-11-07 08:06:00,
2013-11-07 02:11:00,44.2,22.0,24.57,NE,40,4.0,5.0,41,0.00,,---,0.00,VWS V14.01,2013-11-07 08:11:00,
2013-11-07 02:16:00,44.2,22.0,24.57,NE,39,2.0,4.0,41,0.00,,---,0.00,VWS V14.01,2013-11-07 08:16:00,
2013-11-07 02:21:00,44.1,22.5,24.57,NE,40,4.0,4.0,42,0.00,,---,0.00,VWS V14.01,2013-11-07 08:21:00,
2013-11-07 02:26:00,44.0,23.0,24.57,NE,40,3.0,4.0,43,0.00,,---,0.00,VWS V14.01,2013-11-07 08:26:00,
2013-11-07 02:31:00,44.0,23.0,24.57,NE,40,4.0,4.0,43,0.00,,---,0.00,VWS V14.01,2013-11-07 08:31:00,
2013-11-07 02:36:00,44.0,22.4,24.57,NNE,33,4.0,4.0,42,0.00,,---,0.00,VWS V14.01,2013-11-07 08:36:00,
2013-11-07 02:41:00,44.1,22.5,24.57,NNE,30,2.0,3.0,42,0.00,,---,0.00,VWS V14.01,2013-11-07 08:41:00,
2013-11-07 02:46:00,44.2,23.1,24.57,NNE,29,2.0,3.0,43,0.00,,---,0.00,VWS V14.01,2013-11-07 08:46:00,
2013-11-07 02:51:00,44.4,23.3,24.57,NNE,30,3.0,3.0,43,0.00,,---,0.00,VWS V14.01,2013-11-07 08:51:00,
2013-11-07 02:56:00,44.6,22.9,24.57,NNE,29,3.0,3.0,42,0.00,,---,0.00,VWS V14.01,2013-11-07 08:56:00,
2013-11-07 03:01:00,44.6,22.9,24.57,NNE,29,3.0,3.0,42,0.00,,---,0.00,VWS V14.01,2013-11-07 09:01:00,
2013-11-07 03:06:00,44.3,22.7,24.57,NNE,29,2.0,2.0,42,0.00,,---,0.00,VWS V14.01,2013-11-07 09:06:00,
2013-11-07 03:11:00,44.2,23.1,24.57,NNE,29,2.0,3.0,43,0.00,,---,0.00,VWS V14.01,2013-11-07 09:11:00,
2013-11-07 03:16:00,44.3,22.7,24.57,NNE,29,2.0,3.0,42,0.00,,---,0.00,VWS V14.01,2013-11-07 09:16:00,
2013-11-07 03:21:00,44.7,15.9,24.57,NNE,29,2.0,3.0,31,0.00,,---,0.00,VWS V14.01,2013-11-07 09:21:00,
2013-11-07 03:26:00,45.2,21.7,24.57,NNE,29,2.0,2.0,39,0.00,,---,0.00,VWS V14.01,2013-11-07 09:26:00,
2013-11-07 03:31:00,45.2,21.1,24.57,NNE,28,3.0,4.0,38,0.00,,---,0.00,VWS V14.01,2013-11-07 09:31:00,
2013-11-07 03:36:00,45.1,14.8,24.57,NNE,27,2.0,3.0,29,0.00,,---,0.00,VWS V14.01,2013-11-07 09:36:00,
2013-11-07 03:41:00,45.2,8.6,24.57,NNE,26,3.0,4.0,22,0.00,,---,0.00,VWS V14.01,2013-11-07 09:41:00,
2013-11-07 03:46:00,46.1,-0.4,24.58,NNE,15,4.0,4.0,14,0.00,,---,0.00,VWS V14.01,2013-11-07 09:46:00,
2013-11-07 03:51:00,47.4,-2.7,24.58,North,8,2.0,3.0,12,0.00,,---,0.00,VWS V14.01,2013-11-07 09:51:00,
2013-11-07 03:56:00,48.1,-3.9,24.58,North,360,3.0,5.0,11,0.00,,---,0.00,VWS V14.01,2013-11-07 09:56:00,
2013-11-07 04:01:00,48.5,-5.6,24.58,North,360,3.0,4.0,10,0.00,,---,0.00,VWS V14.01,2013-11-07 10:01:00,
2013-11-07 04:06:00,48.5,-7.8,24.58,North,360,4.0,4.0,9,0.00,,---,0.00,VWS V14.01,2013-11-07 10:06:00,
2013-11-07 04:11:00,48.7,-12.7,24.58,North,360,2.0,4.0,7,0.00,,---,0.00,VWS V14.01,2013-11-07 10:11:00,
2013-11-07 04:16:00,48.9,-15.6,24.59,North,360,3.0,3.0,6,0.00,,---,0.00,VWS V14.01,2013-11-07 10:16:00,
2013-11-07 04:21:00,49.2,-15.4,24.59,North,360,2.0,3.0,6,0.00,,---,0.00,VWS V14.01,2013-11-07 10:21:00,
2013-11-07 04:26:00,49.4,-15.2,24.59,North,360,2.0,4.0,6,0.00,,---,0.00,VWS V14.01,2013-11-07 10:26:00,
2013-11-07 04:31:00,49.4,-15.2,24.59,North,360,3.0,4.0,6,0.00,,---,0.00,VWS V14.01,2013-11-07 10:31:00,
2013-11-07 04:36:00,49.4,-15.2,24.59,North,360,3.0,4.0,6,0.00,,---,0.00,VWS V14.01,2013-11-07 10:36:00,
2013-11-07 04:41:00,49.2,-12.3,24.59,NNE,17,2.0,4.0,7,0.00,,---,0.00,VWS V14.01,2013-11-07 10:41:00,
2013-11-07 04:46:00,48.9,-9.9,24.59,North,11,4.0,6.0,8,0.00,,---,0.00,VWS V14.01,2013-11-07 10:46:00,
2013-11-07 04:51:00,48.5,-5.6,24.59,NNE,12,3.0,5.0,10,0.00,,---,0.00,VWS V14.01,2013-11-07 10:51:00,
2013-11-07 04:56:00,48.1,-5.9,24.59,North,9,3.0,6.0,10,0.00,,---,0.00,VWS V14.01,2013-11-07 10:56:00,
2013-11-07 05:01:00,48.0,-2.2,24.59,North,2,4.0,4.0,12,0.00,,---,0.00,VWS V14.01,2013-11-07 11:01:00,
2013-11-07 05:06:00,47.7,-2.4,24.59,North,10,1.0,4.0,12,0.00,,---,0.00,VWS V14.01,2013-11-07 11:06:00,
2013-11-07 05:11:00,47.4,0.6,24.59,North,1,3.0,4.0,14,0.00,,---,0.00,VWS V14.01,2013-11-07 11:11:00,
2013-11-07 05:16:00,46.7,2.9,24.59,North,360,3.0,4.0,16,0.00,,---,0.00,VWS V14.01,2013-11-07 11:16:00,
2013-11-07 05:21:00,46.1,1.0,24.59,North,358,3.0,3.0,15,0.00,,---,0.00,VWS V14.01,2013-11-07 11:21:00,
2013-11-07 05:26:00,46.1,-0.4,24.59,North,358,4.0,5.0,14,0.00,,---,0.00,VWS V14.01,2013-11-07 11:26:00,
2013-11-07 05:31:00,46.0,0.9,24.59,North,351,4.0,5.0,15,0.00,,---,0.00,VWS V14.01,2013-11-07 11:31:00,
2013-11-07 05:34:00,46.0,0.9,24.59,North,350,4.0,5.0,15,0.00,,---,0.00,VWS V14.01,2013-11-07 11:34:00,
2013-11-07 05:39:00,46.0,0.9,24.59,North,356,4.0,4.0,15,0.00,,---,0.00,VWS V14.01,2013-11-07 11:39:00,
2013-11-07 05:44:00,46.0,0.9,24.60,North,353,3.0,4.0,15,0.00,,---,0.00,VWS V14.01,2013-11-07 11:44:00,
2013-11-07 05:49:00,46.1,1.0,24.60,North,351,4.0,5.0,15,0.00,,---,0.00,VWS V14.01,2013-11-07 11:49:00,
2013-11-07 05:54:00,46.1,-0.4,24.60,NNW,346,4.0,5.0,14,0.00,,---,0.00,VWS V14.01,2013-11-07 11:54:00,
2013-11-07 05:59:00,46.1,-2.0,24.60,NNW,341,5.0,5.0,13,0.00,,---,0.00,VWS V14.01,2013-11-07 11:59:00,
2013-11-07 06:04:00,46.0,-2.1,24.61,NNW,343,4.0,5.0,13,0.00,,---,0.00,VWS V14.01,2013-11-07 12:04:00,
2013-11-07 06:09:00,46.0,-2.1,24.61,NNW,341,4.0,4.0,13,0.00,,---,0.00,VWS V14.01,2013-11-07 12:09:00,
2013-11-07 06:14:00,45.9,-2.2,24.61,NNW,340,4.0,5.0,13,0.00,,---,0.00,VWS V14.01,2013-11-07 12:14:00,
2013-11-07 06:19:00,46.0,-3.8,24.61,NNW,340,3.0,4.0,12,0.00,,---,0.00,VWS V14.01,2013-11-07 12:19:00,
2013-11-07 06:24:00,46.2,-5.4,24.61,NNW,348,2.0,4.0,11,0.00,,---,0.00,VWS V14.01,2013-11-07 12:24:00,
2013-11-07 06:29:00,46.3,-5.3,24.61,NNW,346,4.0,5.0,11,0.00,,---,0.00,VWS V14.01,2013-11-07 12:29:00,
2013-11-07 06:34:00,46.3,-5.3,24.61,NNW,344,3.0,4.0,11,0.00,,---,0.00,VWS V14.01,2013-11-07 12:34:00,
2013-11-07 06:39:00,46.0,-5.6,24.62,NNW,342,2.0,5.0,11,0.00,,---,0.00,VWS V14.01,2013-11-07 12:39:00,
2013-11-07 06:44:00,45.9,-7.6,24.62,NNW,343,4.0,5.0,10,0.00,,---,0.00,VWS V14.01,2013-11-07 12:44:00,
2013-11-07 06:49:00,45.9,-7.6,24.62,NNW,339,4.0,5.0,10,0.00,,---,0.00,VWS V14.01,2013-11-07 12:49:00,
2013-11-07 06:54:00,45.9,-5.6,24.62,North,359,1.0,2.0,11,0.00,,---,0.00,VWS V14.01,2013-11-07 12:54:00,
2013-11-07 06:59:00,45.9,-5.6,24.62,North,360,4.0,4.0,11,0.00,,---,0.00,VWS V14.01,2013-11-07 12:59:00,
2013-11-07 07:04:00,45.8,-7.7,24.62,North,7,2.0,4.0,10,0.00,,---,0.00,VWS V14.01,2013-11-07 13:04:00,
2013-11-07 07:09:00,45.8,-5.7,24.63,NNE,14,4.0,4.0,11,0.00,,---,0.00,VWS V14.01,2013-11-07 13:09:00,
2013-11-07 07:14:00,45.7,-4.0,24.63,NNE,13,3.0,3.0,12,0.00,,---,0.00,VWS V14.01,2013-11-07 13:14:00,
2013-11-07 07:19:00,45.6,-4.1,24.63,North,360,3.0,5.0,12,0.00,,---,0.00,VWS V14.01,2013-11-07 13:19:00,
2013-11-07 07:24:00,45.6,-4.1,24.63,North,349,5.0,5.0,12,0.00,,---,0.00,VWS V14.01,2013-11-07 13:24:00,
2013-11-07 07:29:00,45.4,-2.6,24.63,NNW,338,5.0,6.0,13,0.00,,---,0.00,VWS V14.01,2013-11-07 13:29:00,
2013-11-07 07:34:00,45.3,-2.6,24.64,NNW,333,3.0,6.0,13,0.00,,---,0.00,VWS V14.01,2013-11-07 13:34:00,
2013-11-07 07:39:00,45.3,-2.6,24.64,NNW,346,2.0,5.0,13,0.00,,---,0.00,VWS V14.01,2013-11-07 13:39:00,
2013-11-07 07:44:00,45.2,-2.7,24.64,North,358,4.0,4.0,13,0.00,,---,0.00,VWS V14.01,2013-11-07 13:44:00,
2013-11-07 07:49:00,44.9,-6.4,24.64,North,358,4.0,4.0,11,0.00,,---,0.00,VWS V14.01,2013-11-07 13:49:00,
2013-11-07 07:54:00,44.9,-4.6,24.64,NNW,332,5.0,5.0,12,0.00,,---,0.00,VWS V14.01,2013-11-07 13:54:00,
2013-11-07 07:59:00,45.0,-2.9,24.64,NNW,329,5.0,5.0,13,0.00,,---,0.00,VWS V14.01,2013-11-07 13:59:00,
2013-11-07 08:04:00,45.2,-2.7,24.65,NNW,329,3.0,5.0,13,0.00,,---,0.00,VWS V14.01,2013-11-07 14:04:00,
2013-11-07 08:09:00,45.4,-1.0,24.65,NNW,329,3.0,4.0,14,0.00,,---,0.00,VWS V14.01,2013-11-07 14:09:00,
2013-11-07 08:14:00,45.5,-0.9,24.65,NNW,329,3.0,4.0,14,0.00,,---,0.00,VWS V14.01,2013-11-07 14:14:00,
2013-11-07 08:19:00,45.8,-0.7,24.65,North,358,4.0,4.0,14,0.00,,---,0.00,VWS V14.01,2013-11-07 14:19:00,
2013-11-07 08:24:00,46.0,-0.5,24.65,North,349,4.0,5.0,14,0.00,,---,0.00,VWS V14.01,2013-11-07 14:24:00,
2013-11-07 08:29:00,46.1,-0.4,24.65,North,357,6.0,6.0,14,0.00,,---,0.00,VWS V14.01,2013-11-07 14:29:00,
2013-11-07 08:34:00,46.1,-0.4,24.65,North,360,4.0,6.0,14,0.00,,---,0.00,VWS V14.01,2013-11-07 14:34:00,
2013-11-07 08:39:00,46.2,1.1,24.65,North,3,4.0,5.0,15,0.00,,---,0.00,VWS V14.01,2013-11-07 14:39:00,
2013-11-07 08:44:00,46.4,1.3,24.65,North,10,6.0,9.0,15,0.00,,---,0.00,VWS V14.01,2013-11-07 14:44:00,
2013-11-07 08:49:00,46.7,2.9,24.66,NE,43,3.0,6.0,16,0.00,,---,0.00,VWS V14.01,2013-11-07 14:49:00,
2013-11-07 08:54:00,47.0,3.2,24.65,NNE,14,2.0,5.0,16,0.00,,---,0.00,VWS V14.01,2013-11-07 14:54:00,
2013-11-07 08:59:00,47.2,3.3,24.66,North,10,2.0,4.0,16,0.00,,---,0.00,VWS V14.01,2013-11-07 14:59:00,
2013-11-07 09:04:00,47.4,4.8,24.67,NNE,14,2.0,2.0,17,0.00,,---,0.00,VWS V14.01,2013-11-07 15:04:00,
2013-11-07 09:09:00,47.4,6.0,24.67,NE,41,5.0,6.0,18,0.00,,---,0.00,VWS V14.01,2013-11-07 15:09:00,
2013-11-07 09:14:00,47.4,6.0,24.67,NE,43,3.0,9.0,18,0.00,,---,0.00,VWS V14.01,2013-11-07 15:14:00,
2013-11-07 09:19:00,47.6,7.4,24.67,NE,36,3.0,7.0,19,0.00,,---,0.00,VWS V14.01,2013-11-07 15:19:00,
2013-11-07 09:24:00,48.0,7.7,24.67,NE,43,1.0,5.0,19,0.00,,---,0.00,VWS V14.01,2013-11-07 15:24:00,
2013-11-07 09:29:00,48.4,9.2,24.67,NE,48,4.0,6.0,20,0.00,,---,0.00,VWS V14.01,2013-11-07 15:29:00,
2013-11-07 09:34:00,48.4,8.1,24.67,NE,37,5.0,6.0,19,0.00,,---,0.00,VWS V14.01,2013-11-07 15:34:00,
2013-11-07 09:39:00,48.3,8.0,24.67,NE,48,2.0,3.0,19,0.00,,---,0.00,VWS V14.01,2013-11-07 15:39:00,
2013-11-07 09:44:00,48.7,10.5,24.67,NE,36,8.0,9.0,21,0.00,,---,0.00,VWS V14.01,2013-11-07 15:44:00,
2013-11-07 09:49:00,49.1,9.8,24.67,NE,50,8.0,8.0,20,0.00,,---,0.00,VWS V14.01,2013-11-07 15:49:00,
2013-11-07 09:54:00,49.0,9.7,24.67,ENE,57,4.0,5.0,20,0.00,,---,0.00,VWS V14.01,2013-11-07 15:54:00,
2013-11-07 09:59:00,49.4,8.9,24.67,ENE,60,5.0,9.0,19,0.00,,---,0.00,VWS V14.01,2013-11-07 15:59:00,
2013-11-07 10:04:00,49.5,11.2,24.66,ENE,69,3.0,7.0,21,0.00,,---,0.00,VWS V14.01,2013-11-07 16:04:00,
2013-11-07 10:10:00,49.9,9.3,24.67,ENE,60,4.0,7.0,19,0.00,,---,0.00,VWS V14.01,2013-11-07 16:10:00,
2013-11-07 10:15:00,50.0,10.5,24.67,ENE,67,5.0,8.0,20,0.00,,---,0.00,VWS V14.01,2013-11-07 16:15:00,
2013-11-07 10:20:00,50.1,10.6,24.67,ENE,61,7.0,8.0,20,0.00,,---,0.00,VWS V14.01,2013-11-07 16:20:00,
2013-11-07 10:25:00,49.8,12.5,24.67,ENE,57,3.0,8.0,22,0.00,,---,0.00,VWS V14.01,2013-11-07 16:25:00,
2013-11-07 10:30:00,49.9,12.6,24.67,NE,38,6.0,9.0,22,0.00,,---,0.00,VWS V14.01,2013-11-07 16:30:00,
2013-11-07 10:35:00,50.1,13.8,24.67,ENE,59,9.0,10.0,23,0.00,,---,0.00,VWS V14.01,2013-11-07 16:35:00,
2013-11-07 10:40:00,51.0,13.5,24.67,NE,56,1.0,8.0,22,0.00,,---,0.00,VWS V14.01,2013-11-07 16:40:00,
2013-11-07 10:45:00,51.7,10.8,24.67,ENE,59,10.0,10.0,19,0.00,,---,0.00,VWS V14.01,2013-11-07 16:45:00,
2013-11-07 10:50:00,51.4,12.8,24.67,East,82,1.0,5.0,21,0.00,,---,0.00,VWS V14.01,2013-11-07 16:50:00,
2013-11-07 10:55:00,51.8,12.0,24.66,East,89,7.0,9.0,20,0.00,,---,0.00,VWS V14.01,2013-11-07 16:55:00,
2013-11-07 11:00:00,52.0,12.2,24.67,ENE,71,5.0,7.0,20,0.00,,---,0.00,VWS V14.01,2013-11-07 17:00:00,
2013-11-07 11:05:00,51.9,13.2,24.67,ENE,66,7.0,8.0,21,0.00,,---,0.00,VWS V14.01,2013-11-07 17:05:00,
2013-11-07 11:10:00,52.2,10.0,24.66,NE,56,5.0,9.0,18,0.00,,---,0.00,VWS V14.01,2013-11-07 17:10:00,
2013-11-07 11:15:00,52.4,8.9,24.66,ENE,59,4.0,8.0,17,0.00,,---,0.00,VWS V14.01,2013-11-07 17:15:00,
2013-11-07 11:20:00,53.0,9.4,24.66,ENE,62,3.0,7.0,17,0.00,,---,0.00,VWS V14.01,2013-11-07 17:20:00,
2013-11-07 11:25:00,53.1,6.7,24.66,East,89,6.0,10.0,15,0.00,,---,0.00,VWS V14.01,2013-11-07 17:25:00,
2013-11-07 11:30:00,53.4,5.4,24.66,ENE,72,10.0,12.0,14,0.00,,---,0.00,VWS V14.01,2013-11-07 17:30:00,
2013-11-07 11:35:00,53.7,4.0,24.65,ENE,78,8.0,13.0,13,0.00,,---,0.00,VWS V14.01,2013-11-07 17:35:00,
2013-11-07 11:40:00,53.9,5.8,24.65,ENE,61,9.0,12.0,14,0.00,,---,0.00,VWS V14.01,2013-11-07 17:40:00,
2013-11-07 11:45:00,54.5,7.8,24.65,ENE,78,11.0,12.0,15,0.00,,---,0.00,VWS V14.01,2013-11-07 17:45:00,
2013-11-07 11:50:00,54.7,6.5,24.65,ENE,58,13.0,14.0,14,0.00,,---,0.00,VWS V14.01,2013-11-07 17:50:00,
2013-11-07 11:55:00,54.9,8.1,24.65,ENE,58,10.0,13.0,15,0.00,,---,0.00,VWS V14.01,2013-11-07 17:55:00,
2013-11-07 11:59:00,54.6,9.3,24.65,ENE,60,12.0,13.0,16,0.00,,---,0.00,VWS V14.01,2013-11-07 17:59:00,
2013-11-07 12:04:00,54.6,7.9,24.64,ENE,65,6.0,11.0,15,0.00,,---,0.00,VWS V14.01,2013-11-07 18:04:00,
2013-11-07 12:09:00,54.5,7.8,24.64,ENE,71,10.0,12.0,15,0.00,,---,0.00,VWS V14.01,2013-11-07 18:09:00,
2013-11-07 12:14:00,54.8,10.8,24.64,ENE,62,5.0,14.0,17,0.00,,---,0.00,VWS V14.01,2013-11-07 18:14:00,
2013-11-07 12:19:00,55.3,11.2,24.64,ENE,74,10.0,12.0,17,0.00,,---,0.00,VWS V14.01,2013-11-07 18:19:00,
2013-11-07 12:24:00,55.8,8.9,24.64,East,81,7.0,10.0,15,0.00,,---,0.00,VWS V14.01,2013-11-07 18:24:00,
2013-11-07 12:29:00,56.2,9.2,24.64,ENE,76,7.0,11.0,15,0.00,,---,0.00,VWS V14.01,2013-11-07 18:29:00,
2013-11-07 12:34:00,56.3,7.7,24.64,NE,48,9.0,11.0,14,0.00,,---,0.00,VWS V14.01,2013-11-07 18:34:00,
2013-11-07 12:39:00,56.4,6.2,24.64,ENE,75,3.0,12.0,13,0.00,,---,0.00,VWS V14.01,2013-11-07 18:39:00,
2013-11-07 12:44:00,55.6,5.6,24.63,ENE,75,6.0,7.0,13,0.00,,---,0.00,VWS V14.01,2013-11-07 18:44:00,
2013-11-07 12:49:00,55.8,4.0,24.62,ESE,111,6.0,10.0,12,0.00,,---,0.00,VWS V14.01,2013-11-07 18:49:00,
2013-11-07 12:54:00,56.5,6.3,24.62,ENE,62,11.0,12.0,13,0.00,,---,0.00,VWS V14.01,2013-11-07 18:54:00,
2013-11-07 12:59:00,56.4,7.8,24.62,ESE,123,11.0,11.0,14,0.00,,---,0.00,VWS V14.01,2013-11-07 18:59:00,
2013-11-07 13:04:00,56.2,9.2,24.62,ESE,111,8.0,8.0,15,0.00,,---,0.00,VWS V14.01,2013-11-07 19:04:00,
2013-11-07 13:09:00,56.0,10.5,24.61,ESE,115,14.0,15.0,16,0.00,,---,0.00,VWS V14.01,2013-11-07 19:09:00,
2013-11-07 13:14:00,55.4,10.0,24.61,ESE,120,8.0,10.0,16,0.00,,---,0.00,VWS V14.01,2013-11-07 19:14:00,
2013-11-07 13:19:00,55.1,9.7,24.60,SE,135,3.0,7.0,16,0.00,,---,0.00,VWS V14.01,2013-11-07 19:19:00,
2013-11-07 13:24:00,55.8,11.7,24.60,ESE,102,3.0,7.0,17,0.00,,---,0.00,VWS V14.01,2013-11-07 19:24:00,
2013-11-07 13:29:00,55.5,12.7,24.60,SE,127,8.0,8.0,18,0.00,,---,0.00,VWS V14.01,2013-11-07 19:29:00,
2013-11-07 13:34:00,55.3,12.5,24.60,ESE,104,9.0,9.0,18,0.00,,---,0.00,VWS V14.01,2013-11-07 19:34:00,
2013-11-07 13:39:00,55.3,13.8,24.59,East,97,2.0,9.0,19,0.00,,---,0.00,VWS V14.01,2013-11-07 19:39:00,
2013-11-07 13:44:00,54.9,13.4,24.59,ESE,107,7.0,10.0,19,0.00,,---,0.00,VWS V14.01,2013-11-07 19:44:00,
2013-11-07 13:49:00,55.4,13.9,24.58,SE,138,7.0,11.0,19,0.00,,---,0.00,VWS V14.01,2013-11-07 19:49:00,
2013-11-07 13:54:00,55.0,13.5,24.59,East,85,0.0,3.0,19,0.00,,---,0.00,VWS V14.01,2013-11-07 19:54:00,
2013-11-07 13:59:00,55.2,13.7,24.59,NE,45,4.0,4.0,19,0.00,,---,0.00,VWS V14.01,2013-11-07 19:59:00,
2013-11-07 14:04:00,55.3,14.9,24.59,ENE,69,7.0,11.0,20,0.00,,---,0.00,VWS V14.01,2013-11-07 20:04:00,
2013-11-07 14:09:00,55.4,16.1,24.58,ENE,68,10.0,12.0,21,0.00,,---,0.00,VWS V14.01,2013-11-07 20:09:00,
2013-11-07 14:14:00,55.5,15.1,24.58,ENE,78,4.0,4.0,20,0.00,,---,0.00,VWS V14.01,2013-11-07 20:14:00,
2013-11-07 14:19:00,55.2,14.9,24.57,ESE,103,2.0,7.0,20,0.00,,---,0.00,VWS V14.01,2013-11-07 20:19:00,
2013-11-07 14:24:00,55.2,14.9,24.58,ENE,67,6.0,6.0,20,0.00,,---,0.00,VWS V14.01,2013-11-07 20:24:00,
2013-11-07 14:29:00,55.3,14.9,24.58,ENE,64,7.0,8.0,20,0.00,,---,0.00,VWS V14.01,2013-11-07 20:29:00,
2013-11-07 14:34:00,55.3,13.8,24.57,ENE,74,5.0,7.0,19,0.00,,---,0.00,VWS V14.01,2013-11-07 20:34:00,
2013-11-07 14:40:00,55.7,11.6,24.58,ENE,77,4.0,8.0,17,0.00,,---,0.00,VWS V14.01,2013-11-07 20:40:00,
2013-11-07 14:45:00,55.7,11.6,24.57,NE,55,4.0,8.0,17,0.00,,---,0.00,VWS V14.01,2013-11-07 20:45:00,
2013-11-07 14:50:00,55.2,11.2,24.57,ESE,104,7.0,9.0,17,0.00,,---,0.00,VWS V14.01,2013-11-07 20:50:00,
2013-11-07 14:55:00,54.9,12.2,24.57,ENE,64,5.0,5.0,18,0.00,,---,0.00,VWS V14.01,2013-11-07 20:55:00,
2013-11-07 15:00:00,54.8,10.8,24.57,ESE,121,7.0,7.0,17,0.00,,---,0.00,VWS V14.01,2013-11-07 21:00:00,
2013-11-07 15:05:00,54.0,11.5,24.57,ENE,67,2.0,6.0,18,0.00,,---,0.00,VWS V14.01,2013-11-07 21:05:00,
2013-11-07 15:10:00,54.2,12.9,24.57,SE,142,6.0,6.0,19,0.00,,---,0.00,VWS V14.01,2013-11-07 21:10:00,
2013-11-07 15:15:00,54.1,13.9,24.57,SSE,154,4.0,6.0,20,0.00,,---,0.00,VWS V14.01,2013-11-07 21:15:00,
2013-11-07 15:20:00,53.8,13.7,24.57,South,175,4.0,5.0,20,0.00,,---,0.00,VWS V14.01,2013-11-07 21:20:00,
2013-11-07 15:25:00,53.7,13.6,24.57,ESE,112,4.0,7.0,20,0.00,,---,0.00,VWS V14.01,2013-11-07 21:25:00,
2013-11-07 15:30:00,53.4,13.4,24.56,ESE,120,5.0,6.0,20,0.00,,---,0.00,VWS V14.01,2013-11-07 21:30:00,
2013-11-07 15:35:00,53.2,13.2,24.57,ESE,107,6.0,8.0,20,0.00,,---,0.00,VWS V14.01,2013-11-07 21:35:00,
2013-11-07 15:40:00,52.8,10.5,24.56,South,181,7.0,9.0,18,0.00,,---,0.00,VWS V14.01,2013-11-07 21:40:00,
2013-11-07 15:45:00,52.5,10.2,24.56,South,185,7.0,9.0,18,0.00,,---,0.00,VWS V14.01,2013-11-07 21:45:00,
2013-11-07 15:50:00,52.7,11.6,24.56,SE,125,7.0,10.0,19,0.00,,---,0.00,VWS V14.01,2013-11-07 21:50:00,
2013-11-07 15:55:00,52.6,10.3,24.56,ESE,115,9.0,9.0,18,0.00,,---,0.00,VWS V14.01,2013-11-07 21:55:00,
2013-11-07 16:00:00,52.6,11.5,24.56,SSE,147,7.0,8.0,19,0.00,,---,0.00,VWS V14.01,2013-11-07 22:00:00,
2013-11-07 16:05:00,52.6,11.5,24.56,SSE,151,6.0,9.0,19,0.00,,---,0.00,VWS V14.01,2013-11-07 22:05:00,
2013-11-07 16:10:00,52.4,11.4,24.56,ESE,116,4.0,5.0,19,0.00,,---,0.00,VWS V14.01,2013-11-07 22:10:00,
2013-11-07 16:15:00,52.3,11.3,24.56,SE,133,4.0,7.0,19,0.00,,---,0.00,VWS V14.01,2013-11-07 22:15:00,
2013-11-07 16:20:00,52.1,12.3,24.55,SE,125,4.0,4.0,20,0.00,,---,0.00,VWS V14.01,2013-11-07 22:20:00,
2013-11-07 16:25:00,52.2,12.4,24.55,SE,138,7.0,8.0,20,0.00,,---,0.00,VWS V14.01,2013-11-07 22:25:00,
2013-11-07 16:30:00,52.0,12.2,24.55,SE,135,9.0,10.0,20,0.00,,---,0.00,VWS V14.01,2013-11-07 22:30:00,
2013-11-07 16:35:00,51.8,12.0,24.55,SE,130,4.0,8.0,20,0.00,,---,0.00,VWS V14.01,2013-11-07 22:35:00,
2013-11-07 16:40:00,51.8,12.0,24.56,SSE,157,5.0,7.0,20,0.00,,---,0.00,VWS V14.01,2013-11-07 22:40:00,
2013-11-07 16:45:00,51.8,12.0,24.56,SSE,147,7.0,9.0,20,0.00,,---,0.00,VWS V14.01,2013-11-07 22:45:00,
2013-11-07 16:50:00,51.6,11.9,24.56,SSE,167,5.0,10.0,20,0.00,,---,0.00,VWS V14.01,2013-11-07 22:50:00,
2013-11-07 16:55:00,51.6,11.9,24.56,ESE,120,8.0,10.0,20,0.00,,---,0.00,VWS V14.01,2013-11-07 22:55:00,
2013-11-07 17:00:00,51.5,10.6,24.56,SE,140,3.0,7.0,19,0.00,,---,0.00,VWS V14.01,2013-11-07 23:00:00,
2013-11-07 17:05:00,51.4,10.5,24.56,SSE,160,4.0,11.0,19,0.00,,---,0.00,VWS V14.01,2013-11-07 23:05:00,
2013-11-07 17:10:00,51.2,10.4,24.56,South,185,5.0,8.0,19,0.00,,---,0.00,VWS V14.01,2013-11-07 23:10:00,
2013-11-07 17:15:00,50.9,12.4,24.56,SSE,152,7.0,9.0,21,0.00,,---,0.00,VWS V14.01,2013-11-07 23:15:00,
2013-11-07 17:20:00,51.0,13.5,24.56,SE,124,5.0,9.0,22,0.00,,---,0.00,VWS V14.01,2013-11-07 23:20:00,
2013-11-07 17:25:00,50.8,11.2,24.56,SE,142,8.0,8.0,20,0.00,,---,0.00,VWS V14.01,2013-11-07 23:25:00,
2013-11-07 17:30:00,50.6,12.1,24.55,SSE,168,6.0,7.0,21,0.00,,---,0.00,VWS V14.01,2013-11-07 23:30:00,
2013-11-07 17:35:00,50.4,10.9,24.56,South,184,5.0,6.0,20,0.00,,---,0.00,VWS V14.01,2013-11-07 23:35:00,
2013-11-07 17:40:00,50.1,10.6,24.56,SSE,157,6.0,9.0,20,0.00,,---,0.00,VWS V14.01,2013-11-07 23:40:00,
2013-11-07 17:45:00,49.8,9.2,24.56,South,172,2.0,5.0,19,0.00,,---,0.00,VWS V14.01,2013-11-07 23:45:00,
2013-11-07 17:50:00,49.5,9.0,24.56,SSE,158,7.0,8.0,19,0.00,,---,0.00,VWS V14.01,2013-11-07 23:50:00,
2013-11-07 17:55:00,49.2,8.7,24.56,SSE,148,7.0,7.0,19,0.00,,---,0.00,VWS V14.01,2013-11-07 23:55:00,
2013-11-07 18:00:00,49.0,8.6,24.56,SE,145,4.0,5.0,19,0.00,,---,0.00,VWS V14.01,2013-11-08 00:00:00,
2013-11-07 18:05:00,48.8,9.5,24.56,SE,142,6.0,6.0,20,0.00,,---,0.00,VWS V14.01,2013-11-08 00:05:00,
2013-11-07 18:10:00,48.7,9.4,24.56,SE,143,5.0,5.0,20,0.00,,---,0.00,VWS V14.01,2013-11-08 00:10:00,
2013-11-07 18:15:00,48.6,10.4,24.56,SE,135,4.0,5.0,21,0.00,,---,0.00,VWS V14.01,2013-11-08 00:15:00,
2013-11-07 18:20:00,48.4,9.2,24.56,SE,132,4.0,7.0,20,0.00,,---,0.00,VWS V14.01,2013-11-08 00:20:00,
2013-11-07 18:25:00,48.3,9.1,24.56,SSE,160,3.0,4.0,20,0.00,,---,0.00,VWS V14.01,2013-11-08 00:25:00,
2013-11-07 18:30:00,48.2,10.1,24.56,SSE,168,2.0,2.0,21,0.00,,---,0.00,VWS V14.01,2013-11-08 00:30:00,
2013-11-07 18:35:00,48.1,11.1,24.57,SSE,168,4.0,4.0,22,0.00,,---,0.00,VWS V14.01,2013-11-08 00:35:00,
2013-11-07 18:40:00,48.0,9.9,24.56,South,169,4.0,4.0,21,0.00,,---,0.00,VWS V14.01,2013-11-08 00:40:00,
2013-11-07 18:45:00,48.0,11.0,24.56,South,173,4.0,4.0,22,0.00,,---,0.00,VWS V14.01,2013-11-08 00:45:00,
2013-11-07 18:50:00,47.9,10.9,24.56,South,173,4.0,4.0,22,0.00,,---,0.00,VWS V14.01,2013-11-08 00:50:00,
2013-11-07 18:55:00,47.9,9.9,24.56,South,173,1.0,3.0,21,0.00,,---,0.00,VWS V14.01,2013-11-08 00:55:00,
2013-11-07 19:00:00,47.8,9.8,24.56,South,171,2.0,3.0,21,0.00,,---,0.00,VWS V14.01,2013-11-08 01:00:00,
2013-11-07 19:05:00,47.6,10.6,24.56,SSE,162,0.0,1.0,22,0.00,,---,0.00,VWS V14.01,2013-11-08 01:05:00,
2013-11-07 19:10:00,47.5,10.6,24.56,SSE,162,0.0,0.0,22,0.00,,---,0.00,VWS V14.01,2013-11-08 01:10:00,
2013-11-07 19:15:00,47.4,9.4,24.56,SSE,162,0.0,0.0,21,0.00,,---,0.00,VWS V14.01,2013-11-08 01:15:00,
2013-11-07 19:21:00,47.2,10.3,24.57,SSE,163,2.0,3.0,22,0.00,,---,0.00,VWS V14.01,2013-11-08 01:21:00,
2013-11-07 19:26:00,47.0,10.1,24.56,SSW,202,2.0,3.0,22,0.00,,---,0.00,VWS V14.01,2013-11-08 01:26:00,
2013-11-07 19:31:00,46.9,10.1,24.56,South,181,1.0,3.0,22,0.00,,---,0.00,VWS V14.01,2013-11-08 01:31:00,
2013-11-07 19:36:00,46.8,11.0,24.56,SSE,164,3.0,4.0,23,0.00,,---,0.00,VWS V14.01,2013-11-08 01:36:00,
2013-11-07 19:41:00,46.7,10.9,24.56,South,173,3.0,5.0,23,0.00,,---,0.00,VWS V14.01,2013-11-08 01:41:00,
2013-11-07 19:46:00,46.7,10.9,24.57,South,177,3.0,3.0,23,0.00,,---,0.00,VWS V14.01,2013-11-08 01:46:00,
2013-11-07 19:51:00,46.5,9.7,24.57,South,177,2.0,3.0,22,0.00,,---,0.00,VWS V14.01,2013-11-08 01:51:00,
2013-11-07 19:56:00,46.4,9.6,24.56,South,187,3.0,4.0,22,0.00,,---,0.00,VWS V14.01,2013-11-08 01:56:00,
2013-11-07 20:01:00,46.2,10.5,24.57,South,173,5.0,6.0,23,0.00,,---,0.00,VWS V14.01,2013-11-08 02:01:00,
2013-11-07 20:06:00,46.0,11.2,24.57,South,190,3.0,5.0,24,0.00,,---,0.00,VWS V14.01,2013-11-08 02:06:00,
2013-11-07 20:11:00,45.8,12.0,24.57,South,173,2.0,4.0,25,0.00,,---,0.00,VWS V14.01,2013-11-08 02:11:00,
2013-11-07 20:16:00,45.5,12.6,24.56,SSW,204,3.0,3.0,26,0.00,,---,0.00,VWS V14.01,2013-11-08 02:16:00,
2013-11-07 20:21:00,45.3,13.3,24.56,SSW,212,7.0,7.0,27,0.00,,---,0.00,VWS V14.01,2013-11-08 02:21:00,
2013-11-07 20:26:00,45.1,14.8,24.56,SSW,210,5.0,5.0,29,0.00,,---,0.00,VWS V14.01,2013-11-08 02:26:00,
2013-11-07 20:31:00,44.9,14.6,24.56,SSW,200,6.0,6.0,29,0.00,,---,0.00,VWS V14.01,2013-11-08 02:31:00,
2013-11-07 20:36:00,44.7,15.2,24.56,SSW,201,9.0,9.0,30,0.00,,---,0.00,VWS V14.01,2013-11-08 02:36:00,
2013-11-07 20:41:00,44.6,15.1,24.56,SSW,202,6.0,7.0,30,0.00,,---,0.00,VWS V14.01,2013-11-08 02:41:00,
2013-11-07 20:46:00,44.6,15.9,24.56,SSW,208,3.0,5.0,31,0.00,,---,0.00,VWS V14.01,2013-11-08 02:46:00,
2013-11-07 20:51:00,44.4,15.7,24.56,SSW,208,5.0,5.0,31,0.00,,---,0.00,VWS V14.01,2013-11-08 02:51:00,
2013-11-07 20:56:00,44.4,15.7,24.56,SSW,208,4.0,4.0,31,0.00,,---,0.00,VWS V14.01,2013-11-08 02:56:00,
2013-11-07 21:01:00,44.3,15.6,24.56,SSW,202,3.0,5.0,31,0.00,,---,0.00,VWS V14.01,2013-11-08 03:01:00,
2013-11-07 21:06:00,44.1,16.1,24.56,SSW,205,2.0,5.0,32,0.00,,---,0.00,VWS V14.01,2013-11-08 03:06:00,
2013-11-07 21:11:00,44.0,16.0,24.56,SW,219,3.0,3.0,32,0.00,,---,0.00,VWS V14.01,2013-11-08 03:11:00,
2013-11-07 21:16:00,43.9,16.0,24.56,SW,218,0.0,2.0,32,0.00,,---,0.00,VWS V14.01,2013-11-08 03:16:00,
2013-11-07 21:21:00,43.8,16.6,24.56,SW,218,0.0,2.0,33,0.00,,---,0.00,VWS V14.01,2013-11-08 03:21:00,
2013-11-07 21:26:00,43.8,16.6,24.56,SW,218,0.0,0.0,33,0.00,,---,0.00,VWS V14.01,2013-11-08 03:26:00,
2013-11-07 21:31:00,43.7,16.5,24.55,SW,218,0.0,0.0,33,0.00,,---,0.00,VWS V14.01,2013-11-08 03:31:00,
2013-11-07 21:36:00,43.7,16.5,24.55,SW,218,2.0,3.0,33,0.00,,---,0.00,VWS V14.01,2013-11-08 03:36:00,
2013-11-07 21:41:00,43.8,16.6,24.55,SW,218,2.0,3.0,33,0.00,,---,0.00,VWS V14.01,2013-11-08 03:41:00,
2013-11-07 21:46:00,43.9,16.0,24.56,SW,219,2.0,3.0,32,0.00,,---,0.00,VWS V14.01,2013-11-08 03:46:00,
2013-11-07 21:51:00,44.2,16.2,24.56,SW,219,4.0,5.0,32,0.00,,---,0.00,VWS V14.01,2013-11-08 03:51:00,
2013-11-07 21:56:00,44.5,15.8,24.56,SW,228,2.0,5.0,31,0.00,,---,0.00,VWS V14.01,2013-11-08 03:56:00,
2013-11-07 22:01:00,45.0,15.4,24.56,SW,216,4.0,5.0,30,0.00,,---,0.00,VWS V14.01,2013-11-08 04:01:00,
2013-11-07 22:06:00,45.4,17.3,24.56,South,183,0.0,4.0,32,0.00,,---,0.00,VWS V14.01,2013-11-08 04:06:00,
2013-11-07 22:11:00,45.6,19.5,24.56,SSW,213,5.0,6.0,35,0.00,,---,0.00,VWS V14.01,2013-11-08 04:11:00,
2013-11-07 22:16:00,45.7,20.3,24.56,SSW,198,6.0,7.0,36,0.00,,---,0.00,VWS V14.01,2013-11-08 04:16:00,
2013-11-07 22:21:00,45.7,22.2,24.55,SSE,168,4.0,5.0,39,0.00,,---,0.00,VWS V14.01,2013-11-08 04:21:00,
2013-11-07 22:26:00,45.6,23.3,24.54,SSW,208,4.0,5.0,41,0.00,,---,0.00,VWS V14.01,2013-11-08 04:26:00,
2013-11-07 22:31:00,45.5,23.2,24.55,SW,231,4.0,6.0,41,0.00,,---,0.00,VWS V14.01,2013-11-08 04:31:00,
2013-11-07 22:36:00,45.4,23.1,24.55,WSW,248,3.0,4.0,41,0.00,,---,0.00,VWS V14.01,2013-11-08 04:36:00,
2013-11-07 22:41:00,45.3,21.8,24.54,WSW,247,3.0,4.0,39,0.00,,---,0.00,VWS V14.01,2013-11-08 04:41:00,
2013-11-07 22:46:00,45.2,23.5,24.54,SSW,203,3.0,7.0,42,0.00,,---,0.00,VWS V14.01,2013-11-08 04:46:00,
2013-11-07 22:51:00,45.4,24.2,24.54,SSW,213,4.0,5.0,43,0.00,,---,0.00,VWS V14.01,2013-11-08 04:51:00,
2013-11-07 22:56:00,45.4,24.2,24.54,WSW,237,6.0,6.0,43,0.00,,---,0.00,VWS V14.01,2013-11-08 04:56:00,
2013-11-07 23:01:00,45.4,25.9,24.54,SW,231,5.0,6.0,46,0.00,,---,0.00,VWS V14.01,2013-11-08 05:01:00,
2013-11-07 23:04:00,45.4,26.4,24.54,SW,233,3.0,6.0,47,0.00,,---,0.00,VWS V14.01,2013-11-08 05:04:00,
2013-11-07 23:09:00,45.6,26.5,24.55,SSW,207,6.0,6.0,47,0.00,,---,0.00,VWS V14.01,2013-11-08 05:09:00,
2013-11-07 23:14:00,45.6,26.5,24.54,South,183,7.0,8.0,47,0.00,,---,0.00,VWS V14.01,2013-11-08 05:14:00,
2013-11-07 23:19:00,45.6,27.1,24.53,SE,138,8.0,10.0,48,0.00,,---,0.00,VWS V14.01,2013-11-08 05:19:00,
2013-11-07 23:24:00,45.4,26.4,24.53,SSW,196,7.0,8.0,47,0.00,,---,0.00,VWS V14.01,2013-11-08 05:24:00,
2013-11-07 23:29:00,45.2,26.7,24.53,South,187,7.0,8.0,48,0.00,,---,0.00,VWS V14.01,2013-11-08 05:29:00,
2013-11-07 23:34:00,45.1,26.6,24.53,South,188,6.0,7.0,48,0.00,,---,0.00,VWS V14.01,2013-11-08 05:34:00,
2013-11-07 23:39:00,45.0,27.0,24.53,South,178,6.0,8.0,49,0.00,,---,0.00,VWS V14.01,2013-11-08 05:39:00,
2013-11-07 23:44:00,44.9,26.9,24.52,South,179,5.0,6.0,49,0.00,,---,0.00,VWS V14.01,2013-11-08 05:44:00,
2013-11-07 23:49:00,44.8,26.8,24.52,SSW,199,6.0,6.0,49,0.00,,---,0.00,VWS V14.01,2013-11-08 05:49:00,
2013-11-07 23:54:00,44.7,26.7,24.52,SSW,210,3.0,8.0,49,0.00,,---,0.00,VWS V14.01,2013-11-08 05:54:00,
2013-11-07 23:59:00,44.6,26.6,24.52,SSW,202,8.0,11.0,49,0.00,,---,0.00,VWS V14.01,2013-11-08 05:59:00,